Futtsu Maru — JD3477 — position and weather

sailwx.info

Track history (hours):
 
Tides and Currents Weather Stations Pressure Air Temp Water Temp Dewpoint Dewpoint Depression Visibility Wind Speed Wind Dir Waves Ship Positions

Futtsu Maru

Last reported at 2017-Oct-22 08:00 UTC. Time now 2017-Oct-22 08:13 UTC.
Position N 35°23' E 139°40'.

Length 43 m; draft 3.8 m.

Type: Tug. MMSI: 431004371.

Date/timePositionNaut miles runAvg speedWind from/ knotsBaromVisibWave heightAir tempDewpointWater temp
2017-Oct-22 08:00N 35°23' E 139°40'612.9
2017-Oct-22 07:31N 35°23' E 139°48'5 9.1
2017-Oct-22 06:59N 35°22' E 139°54'0 0.0
2017-Oct-22 06:29N 35°22' E 139°54'0 0.0
2017-Oct-22 05:58N 35°22' E 139°54'0 0.0
2017-Oct-22 05:30N 35°22' E 139°54'0 0.0
2017-Oct-22 05:00N 35°22' E 139°54'4 8.2
2017-Oct-22 04:30N 35°25' E 139°51'2 3.0
2017-Oct-22 03:59N 35°26' E 139°51'2 3.4
2017-Oct-22 03:27N 35°25' E 139°49'3 5.5
2017-Oct-22 02:59N 35°23' E 139°51'1 2.4
2017-Oct-22 02:25N 35°22' E 139°52'0 0.1
2017-Oct-22 02:00N 35°22' E 139°52'1 0.1
2017-Oct-21 00:52N 35°22' E 139°54'1 2.8
2017-Oct-21 00:30N 35°22' E 139°53'0 0.1
2017-Oct-20 23:59N 35°22' E 139°53'1 0.1
2017-Oct-20 07:29N 35°22' E 139°54'0 0.0
2017-Oct-20 06:51N 35°22' E 139°54'0 0.0
2017-Oct-20 06:30N 35°22' E 139°54'0 0.0
2017-Oct-20 05:55N 35°22' E 139°54'0 0.0
2017-Oct-20 05:30N 35°22' E 139°54'0 0.0
2017-Oct-20 03:41N 35°22' E 139°54'0 0.0
2017-Oct-20 03:29N 35°22' E 139°54'0 0.0
2017-Oct-20 03:00N 35°22' E 139°54'0 0.0
2017-Oct-20 02:26N 35°22' E 139°54'0 0.0
2017-Oct-20 01:51N 35°22' E 139°54'0 0.0
2017-Oct-20 01:20N 35°22' E 139°54'0 0.0
2017-Oct-20 00:51N 35°22' E 139°54'1 3.6
2017-Oct-20 00:29N 35°22' E 139°53'3 7.0
2017-Oct-20 00:00N 35°21' E 139°49'0 0.1
2017-Oct-19 23:30N 35°21' E 139°49'0 0.2
2017-Oct-19 23:00N 35°21' E 139°49'0 0.2
2017-Oct-19 22:31N 35°21' E 139°49'0 0.4
2017-Oct-19 22:00N 35°21' E 139°49'0 0.8
2017-Oct-19 21:30N 35°20' E 139°49'0 0.2
2017-Oct-19 21:00N 35°20' E 139°49'0 0.0
2017-Oct-19 20:30N 35°20' E 139°49'0 0.8
2017-Oct-19 20:00N 35°21' E 139°49'0 0.6
2017-Oct-19 19:30N 35°21' E 139°49'0 0.0
2017-Oct-19 19:00N 35°21' E 139°49'0 0.0
2017-Oct-19 18:30N 35°21' E 139°49'0 0.0
2017-Oct-19 18:00N 35°21' E 139°49'0 0.0
2017-Oct-19 17:30N 35°21' E 139°49'0 0.0
2017-Oct-19 17:00N 35°21' E 139°49'0 0.0
2017-Oct-19 16:30N 35°21' E 139°49'0 0.0
2017-Oct-19 16:00N 35°21' E 139°49'0 0.0
2017-Oct-19 15:30N 35°21' E 139°49'0 0.0
2017-Oct-19 15:00N 35°21' E 139°49'0 0.0
2017-Oct-19 14:30N 35°21' E 139°49'0 0.0
2017-Oct-19 14:00N 35°21' E 139°49'0 0.0
2017-Oct-19 13:31N 35°21' E 139°49'0 0.5
2017-Oct-19 13:01N 35°21' E 139°49'0 0.1
2017-Oct-19 12:30N 35°21' E 139°49'0 0.3
2017-Oct-19 12:00N 35°21' E 139°49'0 0.4
2017-Oct-19 11:30N 35°21' E 139°49'0 0.2
2017-Oct-19 11:00N 35°21' E 139°49'0 0.3
2017-Oct-19 10:30N 35°21' E 139°49'0 0.5
2017-Oct-19 10:00N 35°21' E 139°49'0 0.4
2017-Oct-19 09:31N 35°21' E 139°49'0 0.1
2017-Oct-19 09:01N 35°21' E 139°49'0 0.1
2017-Oct-19 08:30N 35°21' E 139°49'0 0.7
2017-Oct-19 08:00N 35°21' E 139°49'0 0.2
2017-Oct-19 07:30N 35°21' E 139°49'0 0.1
2017-Oct-19 07:00N 35°21' E 139°49'0 0.1
2017-Oct-19 06:31N 35°21' E 139°49'0 0.2
2017-Oct-19 06:01N 35°21' E 139°49'0 0.2
2017-Oct-19 05:30N 35°21' E 139°49'0 0.1
2017-Oct-19 05:00N 35°21' E 139°49'0 0.0
2017-Oct-19 04:30N 35°21' E 139°49'0 0.1
2017-Oct-19 04:00N 35°21' E 139°49'2 3.0
2017-Oct-19 03:30N 35°22' E 139°50'2 3.5
2017-Oct-19 03:00N 35°22' E 139°52'0 0.1
2017-Oct-19 02:30N 35°22' E 139°52'2 2.5
2017-Oct-19 01:47N 35°22' E 139°54'0 0.0
2017-Oct-19 01:30N 35°22' E 139°54'0 0.0
2017-Oct-19 00:51N 35°22' E 139°54'0 0.0
2017-Oct-19 00:24N 35°22' E 139°54'0 0.0
2017-Oct-18 23:45N 35°22' E 139°54'0 0.0
2017-Oct-18 23:29N 35°22' E 139°54'0 0.0
2017-Oct-18 21:27N 35°22' E 139°54'0 0.0
2017-Oct-18 20:57N 35°22' E 139°54'0 0.0
2017-Oct-18 20:30N 35°22' E 139°54'0 0.0
2017-Oct-18 19:57N 35°22' E 139°54'0 0.0
2017-Oct-18 19:30N 35°22' E 139°54'0 0.0
2017-Oct-18 19:00N 35°22' E 139°54'0 0.0
2017-Oct-18 18:26N 35°22' E 139°54'0 0.0
2017-Oct-18 17:59N 35°22' E 139°54'0 0.0
2017-Oct-18 17:30N 35°22' E 139°54'0 0.0
2017-Oct-18 17:00N 35°22' E 139°54'0 0.0
2017-Oct-18 16:30N 35°22' E 139°54'0 0.0
2017-Oct-18 16:00N 35°22' E 139°54'0 0.0
2017-Oct-18 15:30N 35°22' E 139°54'0 0.0
2017-Oct-18 15:00N 35°22' E 139°54'1 1.4
2017-Oct-18 14:00N 35°22' E 139°52'0 0.3
2017-Oct-18 13:29N 35°22' E 139°52'2 3.6
2017-Oct-18 13:00N 35°23' E 139°50'3 5.5
2017-Oct-18 12:31N 35°25' E 139°48'1 1.2
2017-Oct-18 12:00N 35°25' E 139°49'4 6.7
2017-Oct-18 11:25N 35°22' E 139°52'1 3.0
2017-Oct-18 11:00N 35°21' E 139°51'1 1.2
2017-Oct-18 10:30N 35°22' E 139°51'2 4.7
2017-Oct-18 10:01N 35°22' E 139°48'1 1.2
2017-Oct-18 09:30N 35°22' E 139°49'1 2.3
2017-Oct-18 09:01N 35°24' E 139°49'2 3.1
2017-Oct-18 08:30N 35°24' E 139°51'3 5.6
2017-Oct-18 07:58N 35°22' E 139°53'0 0.0
2017-Oct-18 07:21N 35°22' E 139°53'0 0.0
2017-Oct-18 05:36N 35°22' E 139°53'1 9.8
2017-Oct-18 05:29N 35°22' E 139°51'2 5.1
2017-Oct-18 05:01N 35°21' E 139°49'0 0.0
2017-Oct-18 04:30N 35°21' E 139°49'0 0.0
2017-Oct-18 04:00N 35°21' E 139°49'0 0.3
2017-Oct-18 03:31N 35°21' E 139°49'1 1.3
2017-Oct-18 03:00N 35°21' E 139°49'2 3.5
2017-Oct-18 02:31N 35°23' E 139°48'0 0.2
2017-Oct-18 02:00N 35°23' E 139°48'0 0.2
2017-Oct-18 01:30N 35°23' E 139°48'5 1.5
2017-Oct-17 22:21N 35°22' E 139°54'3 7.3
2017-Oct-17 22:00N 35°23' E 139°51'1 1.7
2017-Oct-17 21:30N 35°22' E 139°50'1 1.1
2017-Oct-17 21:00N 35°22' E 139°50'0 0.0
2017-Oct-17 20:31N 35°22' E 139°50'3 5.9
2017-Oct-17 19:59N 35°22' E 139°54'0 0.0
2017-Oct-16 22:59N 35°22' E 139°54'1 1.5
2017-Oct-16 22:27N 35°22' E 139°53'0 0.0
2017-Oct-16 22:00N 35°22' E 139°53'0 0.0
2017-Oct-16 20:10N 35°22' E 139°53'0 0.0
2017-Oct-16 15:31N 35°22' E 139°53'0 0.1
2017-Oct-16 15:27N 35°22' E 139°53'1 1.5
2017-Oct-16 15:01N 35°22' E 139°52'1 1.1
2017-Oct-16 14:01N 35°23' E 139°51'3 5.9
2017-Oct-16 13:30N 35°25' E 139°48'2 4.8
2017-Oct-16 13:00N 35°26' E 139°50'4 7.2
2017-Oct-16 12:30N 35°23' E 139°51'1 1.8
2017-Oct-16 12:00N 35°22' E 139°52'0 0.1
2017-Oct-16 11:30N 35°22' E 139°52'1 0.8
2017-Oct-16 10:47N 35°22' E 139°53'1 2.0
2017-Oct-16 10:30N 35°22' E 139°52'1 2.3
2017-Oct-16 10:00N 35°22' E 139°53'0 0.1
2017-Oct-16 09:30N 35°22' E 139°53'1 0.4
2017-Oct-16 07:23N 35°22' E 139°54'0 0.6
2017-Oct-16 06:58N 35°22' E 139°54'1 1.2
2017-Oct-16 06:30N 35°22' E 139°53'1 0.0
2017-Oct-15 06:07N 35°22' E 139°54'2 7.3
2017-Oct-15 05:54N 35°22' E 139°52'0 0.2
2017-Oct-15 05:30N 35°22' E 139°52'0 0.5
2017-Oct-15 05:00N 35°22' E 139°52'2 4.6
2017-Oct-15 04:31N 35°23' E 139°49'2 4.0
2017-Oct-15 04:00N 35°25' E 139°49'2 3.7
2017-Oct-15 03:31N 35°24' E 139°50'2 4.4
2017-Oct-15 02:57N 35°22' E 139°52'0 0.5
2017-Oct-15 02:30N 35°22' E 139°52'3 5.3
2017-Oct-15 02:00N 35°21' E 139°49'0 0.0
2017-Oct-15 01:30N 35°21' E 139°49'0 0.8
2017-Oct-15 01:01N 35°21' E 139°49'3 5.1
2017-Oct-15 00:30N 35°23' E 139°48'2 4.5
2017-Oct-15 00:00N 35°22' E 139°46'0 0.2
2017-Oct-14 23:30N 35°22' E 139°46'5 8.9
2017-Oct-14 22:57N 35°22' E 139°52'2 0.1
2017-Oct-13 23:15N 35°22' E 139°54'2 9.2
2017-Oct-13 23:00N 35°23' E 139°51'1 1.9
2017-Oct-13 22:30N 35°22' E 139°51'1 2.3
2017-Oct-13 22:00N 35°22' E 139°50'2 3.1
2017-Oct-13 21:30N 35°24' E 139°49'4 0.3
2017-Oct-13 07:18N 35°22' E 139°54'1 3.2
2017-Oct-13 07:00N 35°22' E 139°52'0 0.2
2017-Oct-13 06:29N 35°22' E 139°52'1 0.7
2017-Oct-13 05:21N 35°22' E 139°52'1 3.7
2017-Oct-13 05:00N 35°23' E 139°50'3 5.7
2017-Oct-13 04:30N 35°25' E 139°48'3 4.9
2017-Oct-13 03:58N 35°27' E 139°51'1 3.0
2017-Oct-13 03:30N 35°25' E 139°51'  
Track history (hours):
 
Tides and Currents Weather Stations Pressure Air Temp Water Temp Dewpoint Dewpoint Depression Visibility Wind Speed Wind Dir Waves Ship Positions

Futtsu Maru

Last reported at 2017-Oct-22 08:00 UTC. Time now 2017-Oct-22 08:13 UTC.
Position N 35°23' E 139°40'.

Length 43 m; draft 3.8 m.

Type: Tug. MMSI: 431004371.

Date/timePositionNaut miles runAvg speedWind from/ knotsBaromVisibWave heightAir tempDewpointWater temp
2017-Oct-22 08:00N 35°23' E 139°40'612.9
2017-Oct-22 07:31N 35°23' E 139°48'5 9.1
2017-Oct-22 06:59N 35°22' E 139°54'0 0.0
2017-Oct-22 06:29N 35°22' E 139°54'0 0.0
2017-Oct-22 05:58N 35°22' E 139°54'0 0.0
2017-Oct-22 05:30N 35°22' E 139°54'0 0.0
2017-Oct-22 05:00N 35°22' E 139°54'4 8.2
2017-Oct-22 04:30N 35°25' E 139°51'2 3.0
2017-Oct-22 03:59N 35°26' E 139°51'2 3.4
2017-Oct-22 03:27N 35°25' E 139°49'3 5.5
2017-Oct-22 02:59N 35°23' E 139°51'1 2.4
2017-Oct-22 02:25N 35°22' E 139°52'0 0.1
2017-Oct-22 02:00N 35°22' E 139°52'1 0.1
2017-Oct-21 00:52N 35°22' E 139°54'1 2.8
2017-Oct-21 00:30N 35°22' E 139°53'0 0.1
2017-Oct-20 23:59N 35°22' E 139°53'1 0.1
2017-Oct-20 07:29N 35°22' E 139°54'0 0.0
2017-Oct-20 06:51N 35°22' E 139°54'0 0.0
2017-Oct-20 06:30N 35°22' E 139°54'0 0.0
2017-Oct-20 05:55N 35°22' E 139°54'0 0.0
2017-Oct-20 05:30N 35°22' E 139°54'0 0.0
2017-Oct-20 03:41N 35°22' E 139°54'0 0.0
2017-Oct-20 03:29N 35°22' E 139°54'0 0.0
2017-Oct-20 03:00N 35°22' E 139°54'0 0.0
2017-Oct-20 02:26N 35°22' E 139°54'0 0.0
2017-Oct-20 01:51N 35°22' E 139°54'0 0.0
2017-Oct-20 01:20N 35°22' E 139°54'0 0.0
2017-Oct-20 00:51N 35°22' E 139°54'1 3.6
2017-Oct-20 00:29N 35°22' E 139°53'3 7.0
2017-Oct-20 00:00N 35°21' E 139°49'0 0.1
2017-Oct-19 23:30N 35°21' E 139°49'0 0.2
2017-Oct-19 23:00N 35°21' E 139°49'0 0.2
2017-Oct-19 22:31N 35°21' E 139°49'0 0.4
2017-Oct-19 22:00N 35°21' E 139°49'0 0.8
2017-Oct-19 21:30N 35°20' E 139°49'0 0.2
2017-Oct-19 21:00N 35°20' E 139°49'0 0.0
2017-Oct-19 20:30N 35°20' E 139°49'0 0.8
2017-Oct-19 20:00N 35°21' E 139°49'0 0.6
2017-Oct-19 19:30N 35°21' E 139°49'0 0.0
2017-Oct-19 19:00N 35°21' E 139°49'0 0.0
2017-Oct-19 18:30N 35°21' E 139°49'0 0.0
2017-Oct-19 18:00N 35°21' E 139°49'0 0.0
2017-Oct-19 17:30N 35°21' E 139°49'0 0.0
2017-Oct-19 17:00N 35°21' E 139°49'0 0.0
2017-Oct-19 16:30N 35°21' E 139°49'0 0.0
2017-Oct-19 16:00N 35°21' E 139°49'0 0.0
2017-Oct-19 15:30N 35°21' E 139°49'0 0.0
2017-Oct-19 15:00N 35°21' E 139°49'0 0.0
2017-Oct-19 14:30N 35°21' E 139°49'0 0.0
2017-Oct-19 14:00N 35°21' E 139°49'0 0.0
2017-Oct-19 13:31N 35°21' E 139°49'0 0.5
2017-Oct-19 13:01N 35°21' E 139°49'0 0.1
2017-Oct-19 12:30N 35°21' E 139°49'0 0.3
2017-Oct-19 12:00N 35°21' E 139°49'0 0.4
2017-Oct-19 11:30N 35°21' E 139°49'0 0.2
2017-Oct-19 11:00N 35°21' E 139°49'0 0.3
2017-Oct-19 10:30N 35°21' E 139°49'0 0.5
2017-Oct-19 10:00N 35°21' E 139°49'0 0.4
2017-Oct-19 09:31N 35°21' E 139°49'0 0.1
2017-Oct-19 09:01N 35°21' E 139°49'0 0.1
2017-Oct-19 08:30N 35°21' E 139°49'0 0.7
2017-Oct-19 08:00N 35°21' E 139°49'0 0.2
2017-Oct-19 07:30N 35°21' E 139°49'0 0.1
2017-Oct-19 07:00N 35°21' E 139°49'0 0.1
2017-Oct-19 06:31N 35°21' E 139°49'0 0.2
2017-Oct-19 06:01N 35°21' E 139°49'0 0.2
2017-Oct-19 05:30N 35°21' E 139°49'0 0.1
2017-Oct-19 05:00N 35°21' E 139°49'0 0.0
2017-Oct-19 04:30N 35°21' E 139°49'0 0.1
2017-Oct-19 04:00N 35°21' E 139°49'2 3.0
2017-Oct-19 03:30N 35°22' E 139°50'2 3.5
2017-Oct-19 03:00N 35°22' E 139°52'0 0.1
2017-Oct-19 02:30N 35°22' E 139°52'2 2.5
2017-Oct-19 01:47N 35°22' E 139°54'0 0.0
2017-Oct-19 01:30N 35°22' E 139°54'0 0.0
2017-Oct-19 00:51N 35°22' E 139°54'0 0.0
2017-Oct-19 00:24N 35°22' E 139°54'0 0.0
2017-Oct-18 23:45N 35°22' E 139°54'0 0.0
2017-Oct-18 23:29N 35°22' E 139°54'0 0.0
2017-Oct-18 21:27N 35°22' E 139°54'0 0.0
2017-Oct-18 20:57N 35°22' E 139°54'0 0.0
2017-Oct-18 20:30N 35°22' E 139°54'0 0.0
2017-Oct-18 19:57N 35°22' E 139°54'0 0.0
2017-Oct-18 19:30N 35°22' E 139°54'0 0.0
2017-Oct-18 19:00N 35°22' E 139°54'0 0.0
2017-Oct-18 18:26N 35°22' E 139°54'0 0.0
2017-Oct-18 17:59N 35°22' E 139°54'0 0.0
2017-Oct-18 17:30N 35°22' E 139°54'0 0.0
2017-Oct-18 17:00N 35°22' E 139°54'0 0.0
2017-Oct-18 16:30N 35°22' E 139°54'0 0.0
2017-Oct-18 16:00N 35°22' E 139°54'0 0.0
2017-Oct-18 15:30N 35°22' E 139°54'0 0.0
2017-Oct-18 15:00N 35°22' E 139°54'1 1.4
2017-Oct-18 14:00N 35°22' E 139°52'0 0.3
2017-Oct-18 13:29N 35°22' E 139°52'2 3.6
2017-Oct-18 13:00N 35°23' E 139°50'3 5.5
2017-Oct-18 12:31N 35°25' E 139°48'1 1.2
2017-Oct-18 12:00N 35°25' E 139°49'4 6.7
2017-Oct-18 11:25N 35°22' E 139°52'1 3.0
2017-Oct-18 11:00N 35°21' E 139°51'1 1.2
2017-Oct-18 10:30N 35°22' E 139°51'2 4.7
2017-Oct-18 10:01N 35°22' E 139°48'1 1.2
2017-Oct-18 09:30N 35°22' E 139°49'1 2.3
2017-Oct-18 09:01N 35°24' E 139°49'2 3.1
2017-Oct-18 08:30N 35°24' E 139°51'3 5.6
2017-Oct-18 07:58N 35°22' E 139°53'0 0.0
2017-Oct-18 07:21N 35°22' E 139°53'0 0.0
2017-Oct-18 05:36N 35°22' E 139°53'1 9.8
2017-Oct-18 05:29N 35°22' E 139°51'2 5.1
2017-Oct-18 05:01N 35°21' E 139°49'0 0.0
2017-Oct-18 04:30N 35°21' E 139°49'0 0.0
2017-Oct-18 04:00N 35°21' E 139°49'0 0.3
2017-Oct-18 03:31N 35°21' E 139°49'1 1.3
2017-Oct-18 03:00N 35°21' E 139°49'2 3.5
2017-Oct-18 02:31N 35°23' E 139°48'0 0.2
2017-Oct-18 02:00N 35°23' E 139°48'0 0.2
2017-Oct-18 01:30N 35°23' E 139°48'5 1.5
2017-Oct-17 22:21N 35°22' E 139°54'3 7.3
2017-Oct-17 22:00N 35°23' E 139°51'1 1.7
2017-Oct-17 21:30N 35°22' E 139°50'1 1.1
2017-Oct-17 21:00N 35°22' E 139°50'0 0.0
2017-Oct-17 20:31N 35°22' E 139°50'3 5.9
2017-Oct-17 19:59N 35°22' E 139°54'0 0.0
2017-Oct-16 22:59N 35°22' E 139°54'1 1.5
2017-Oct-16 22:27N 35°22' E 139°53'0 0.0
2017-Oct-16 22:00N 35°22' E 139°53'0 0.0
2017-Oct-16 20:10N 35°22' E 139°53'0 0.0
2017-Oct-16 15:31N 35°22' E 139°53'0 0.1
2017-Oct-16 15:27N 35°22' E 139°53'1 1.5
2017-Oct-16 15:01N 35°22' E 139°52'1 1.1
2017-Oct-16 14:01N 35°23' E 139°51'3 5.9
2017-Oct-16 13:30N 35°25' E 139°48'2 4.8
2017-Oct-16 13:00N 35°26' E 139°50'4 7.2
2017-Oct-16 12:30N 35°23' E 139°51'1 1.8
2017-Oct-16 12:00N 35°22' E 139°52'0 0.1
2017-Oct-16 11:30N 35°22' E 139°52'1 0.8
2017-Oct-16 10:47N 35°22' E 139°53'1 2.0
2017-Oct-16 10:30N 35°22' E 139°52'1 2.3
2017-Oct-16 10:00N 35°22' E 139°53'0 0.1
2017-Oct-16 09:30N 35°22' E 139°53'1 0.4
2017-Oct-16 07:23N 35°22' E 139°54'0 0.6
2017-Oct-16 06:58N 35°22' E 139°54'1 1.2
2017-Oct-16 06:30N 35°22' E 139°53'1 0.0
2017-Oct-15 06:07N 35°22' E 139°54'2 7.3
2017-Oct-15 05:54N 35°22' E 139°52'0 0.2
2017-Oct-15 05:30N 35°22' E 139°52'0 0.5
2017-Oct-15 05:00N 35°22' E 139°52'2 4.6
2017-Oct-15 04:31N 35°23' E 139°49'2 4.0
2017-Oct-15 04:00N 35°25' E 139°49'2 3.7
2017-Oct-15 03:31N 35°24' E 139°50'2 4.4
2017-Oct-15 02:57N 35°22' E 139°52'0 0.5
2017-Oct-15 02:30N 35°22' E 139°52'3 5.3
2017-Oct-15 02:00N 35°21' E 139°49'0 0.0
2017-Oct-15 01:30N 35°21' E 139°49'0 0.8
2017-Oct-15 01:01N 35°21' E 139°49'3 5.1
2017-Oct-15 00:30N 35°23' E 139°48'2 4.5
2017-Oct-15 00:00N 35°22' E 139°46'0 0.2
2017-Oct-14 23:30N 35°22' E 139°46'5 8.9
2017-Oct-14 22:57N 35°22' E 139°52'2 0.1
2017-Oct-13 23:15N 35°22' E 139°54'2 9.2
2017-Oct-13 23:00N 35°23' E 139°51'1 1.9
2017-Oct-13 22:30N 35°22' E 139°51'1 2.3
2017-Oct-13 22:00N 35°22' E 139°50'2 3.1
2017-Oct-13 21:30N 35°24' E 139°49'4 0.3
2017-Oct-13 07:18N 35°22' E 139°54'1 3.2
2017-Oct-13 07:00N 35°22' E 139°52'0 0.2
2017-Oct-13 06:29N 35°22' E 139°52'1 0.7
2017-Oct-13 05:21N 35°22' E 139°52'1 3.7
2017-Oct-13 05:00N 35°23' E 139°50'3 5.7
2017-Oct-13 04:30N 35°25' E 139°48'3 4.9
2017-Oct-13 03:58N 35°27' E 139°51'1 3.0
2017-Oct-13 03:30N 35°25' E 139°51'  

Dump ship's entire track history